COSMOS 1782

导读

COSMOS 1782是独联体(CIS)继承自苏联航天计划的“宇宙”系列卫星,于1986年9月30日08:00发射入轨。作为冷战时期苏联典型的军用卫星平台,它延续了“宇宙”系列多样化任务属性,大概率承担侦察测绘、电子情报或空间环境探测等使命。这类卫星是苏联近地轨道军事化应用的重要组成部分,完成任务后已结束工作,现作为空间碎片在轨或已再入大气层焚毁。

基本信息
目录编号:
16986
目录名称:
COSMOS 1782
国际标识:
1986-074A
轨道中心:
EARTH
卫星名称:
COSMOS 1782
卫星全名:
--
卫星状态:
在轨 (已飞行14584 天)
发射日期:
1986-09-30 UTC
国别 :
俄罗斯(独联体) (CIS)
星等 :
--
轨道信息
数据来源 国际轨道数据 AOE轨道数据
星历时间 2026-09-04T13:27:51+0800
10小时前
查看轨道信息
2026-09-01T12:00:00+0800
3天前
查看轨道信息
半长轴 6834.564km 6834.681km
偏心率 0.0004128 0.0004522
轨道倾角 82.523° 82.525°
近地点辐角 297.839° 310.309°
升交点赤经 57.432° 60.538°
平近点角 62.244° 49.193°
近地点 453.605km 453.453km
远地点 459.249km 459.635km
周期 93.719分钟 93.721分钟
每日圈数 15.365141 15.364748
详细信息
使用方式:
暂无
2D轨道图
3D轨道图
轨道高度分析图
轨道倾角分析图
轨道综合分析图
查看轨道综合分析图
交会数据列表
事件ID 空间交会对象 最接近时刻(TCA) 交会距离 交会风险概率(CRP) 交会风险指数(CRI) 操作
CDM_260904-231201-698606-475821
2026-09-04T
23:12:22+0000
0.616 km
远距离
8.683327E-5 中风险 0.74
CDM_260906-172801-698606-828921
2026-09-06T
17:28:27+0000
1.675 km
极远距离
4.404913E-6 低风险 0.48
CDM_260904-201101-698606-627521
2026-09-04T
20:11:11+0000
1.354 km
极远距离
4.231666E-6 低风险 0.48
CDM_260906-205001-698605-420221
2026-09-06T
20:50:36+0000
1.896 km
极远距离
3.181568E-6 低风险 0.45
CDM_260906-062801-698605-943822
2026-09-06T
06:28:29+0000
2.036 km
极远距离
2.328228E-6 低风险 0.42
CDM_260906-191401-698605-407622
2026-09-06T
19:14:38+0000
2.176 km
极远距离
2.263589E-6 低风险 0.42
CDM_260905-212901-698606-308321
2026-09-05T
21:29:33+0000
2.312 km
极远距离
2.01903E-6 低风险 0.41
CDM_260906-094501-698606-833321
2026-09-06T
09:45:28+0000
2.314 km
极远距离
1.977157E-6 低风险 0.41
CDM_260906-183901-698606-171621
2026-09-06T
18:39:11+0000
2.070 km
极远距离
1.968407E-6 低风险 0.41
CDM_260904-194301-698605-286221
2026-09-04T
19:43:00+0000
2.566 km
极远距离
1.549092E-6 低风险 0.39